Location: Zagreb
(45.8000°N, 16.0000°E)
Time: 21:10:51
(UTC+01:00)

deb Explorer IX - Pass Details

Date: 08 October 2020
Orbit: 537 x 1106 km, 38.8° (Epoch: 30 October)

Event Time Altitude Azimuth Distance (km) Brightness Sun altitude
Rises 18:33:44 0° 268° (W) 3,331 ? -2.8°
Reaches altitude 10° 18:36:47 10° 256° (WSW) 2,286 ? -3.3°
Maximum altitude 18:40:59 24° 203° (SSW) 1,408 ? -4.1°
Drops below altitude 10° 18:44:43 10° 149° (SSE) 2,008 ? -4.7°
Sets 18:47:14 0° 135° (SE) 2,836 ? -5.1°
